GW4746 Weather Reports


Display with metric or nautical units.
time (UTC)temp
F
wind
direction
speed
MPH
gust
MPH
rain 1hr
in
rain 24hr
in
rain mn
in
humidity
%
barometer
mb
20260504223014 87 240 4.0 8.0 0.00 0.00 0.00 41 1006.1
20260504221515 87 200 1.0 10.0 0.00 0.00 0.00 43 1006.4
20260504220019 86 169 1.0 7.0 0.00 0.00 0.00 45 1006.5
20260504214515 85 181 2.0 8.0 0.00 0.00 0.00 45 1006.8
20260504213014 85 230 1.0 6.0 0.00 0.00 0.00 46 1007.0
20260504211516 85 152 2.0 5.0 0.00 0.00 0.00 46 1007.3
20260504210017 85 208 2.0 8.0 0.00 0.00 0.00 46 1007.6
20260504204518 85 178 3.0 5.0 0.00 0.00 0.00 46 1007.8
20260504203022 85 186 2.0 9.0 0.00 0.00 0.00 46 1007.9
20260504201520 85 270 2.0 6.0 0.00 0.00 0.00 47 1008.3
20260504200021 84 161 2.0 6.0 0.00 0.00 0.00 48 1008.6
20260504194531 83 175 1.0 5.0 0.00 0.00 0.00 48 1009.1
20260504193021 82 261 2.0 9.0 0.00 0.00 0.00 50 1009.3
20260504191519 82 196 3.0 6.0 0.00 0.00 0.00 49 1009.4
20260504190021 82 164 2.0 5.0 0.00 0.00 0.00 50 1009.7
20260504184518 82 255 2.0 10.0 0.00 0.00 0.00 50 1010.0
20260504183022 82 239 3.0 8.0 0.00 0.00 0.00 48 1010.2
20260504181516 82 304 1.0 9.0 0.00 0.00 0.00 51 1010.4
20260504180022 80 188 3.0 9.0 0.00 0.00 0.00 52 1010.8
20260504174522 79 193 2.0 8.0 0.00 0.00 0.00 54 1010.9
20260504173021 77 228 2.0 11.0 0.00 0.00 0.00 56 1011.0
20260504171526 76 195 3.0 9.0 0.00 0.00 0.00 58 1011.0
20260504081525 64 230 2.0 6.0 0.00 0.00 0.00 58 1012.9
20260504050022 64 165 1.0 4.0 0.00 0.00 0.00 55 1015.2
20260504044526 65 176 0.0 3.0 0.00 0.00 0.00 54 1015.4
20260504043010 65 167 0.0 4.0 0.00 0.00 0.00 53 1015.4
20260504041517 64 167 0.0 3.0 0.00 0.00 0.00 54 1015.6
20260504040020 64 139 0.0 0.0 0.00 0.00 0.00 55 1015.7
20260504034537 65 139 0.0 0.0 0.00 0.00 0.00 53 1015.7
20260504033009 66 139 0.0 2.0 0.00 0.00 0.00 51 1015.8
20260504031513 67 156 0.0 3.0 0.00 0.00 0.00 49 1015.8
20260504030018 68 176 0.0 3.0 0.00 0.00 0.00 48 1015.7
20260504024522 68 165 0.0 4.0 0.00 0.00 0.00 47 1015.7
20260504023026 69 195 0.0 3.0 0.00 0.00 0.00 47 1015.7
20260504021510 69 152 0.0 2.0 0.00 0.00 0.00 46 1015.5
20260504020012 70 222 0.0 2.0 0.00 0.00 0.00 45 1015.2
20260504014519 70 170 0.0 2.0 0.00 0.00 0.00 44 1015.3
20260504013020 71 162 0.0 2.0 0.00 0.00 0.00 42 1015.3
20260504011528 72 124 0.0 2.0 0.00 0.00 0.00 42 1015.2
20260504010025 73 176 2.0 3.0 0.00 0.00 0.00 39 1015.5
20260504004514 73 145 0.0 4.0 0.00 0.00 0.00 38 1015.4
20260504003020 74 185 1.0 4.0 0.00 0.00 0.00 37 1015.6
20260504001522 75 172 2.0 5.0 0.00 0.00 0.00 37 1015.7
20260504000026 75 197 2.0 6.0 0.00 0.00 0.00 37 1015.8
20260503234514 75 162 2.0 7.0 0.00 0.00 0.00 36 1015.7
20260503233027 76 203 2.0 6.0 0.00 0.00 0.00 35 1015.9
20260503231521 77 156 1.0 4.0 0.00 0.00 0.00 34 1015.8
20260503230024 77 143 2.0 6.0 0.00 0.00 0.00 34 1016.0
20260503224524 77 142 3.0 8.0 0.00 0.00 0.00 34 1016.0